This demonstration page uses our WeatherBlox Daily Observations layout. Learn more.

Left ArrowRight Arrow

41.86663, -103.66717

Hourly Observations for June 15, 2016

Temp ( °F °C ) Dew Point ( °F °C ) Humidity (%) Winds ( mph kmh ) Pressure ( in mb ) Visibility ( mi km ) Precip ( " mm )
12:53 am 00:53 Clear 58 14.4 50 10 75 75 NE 6 9 29.75 1007 10 16 0.00 0.00
1:53 am 01:53 Clear 58 14.4 48 8.9 70 70 N 6 9 29.74 1007 10 16 0.00 0.00
2:53 am 02:53 Clear 58 14.4 48 8.9 70 70 SE 3 6 29.74 1007 10 16 0.00 0.00
3:53 am 03:53 Clear 54 12.2 48 8.9 80 80 Calm 29.75 1007 10 16 0.00 0.00
4:53 am 04:53 Clear 53 11.7 47 8.3 80 80 N 3 6 29.77 1008 10 16 0.00 0.00
5:53 am 05:53 Sunny 53 11.7 48 8.9 83 83 Calm 29.79 1009 10 16 0.00 0.00
6:53 am 06:53 Sunny 63 17.2 51 10.6 65 65 Calm 29.78 1009 10 16 0.00 0.00
7:53 am 07:53 Sunny 66 18.9 50 10 56 56 ESE 3 6 29.80 1009 10 16 0.00 0.00
8:53 am 08:53 Sunny 72 22.2 53 11.7 52 52 ESE 7 11 29.80 1009 10 16 0.00 0.00
9:53 am 09:53 Sunny 78 25.6 53 11.7 42 42 ESE 7 11 29.79 1009 10 16 0.00 0.00
10:53 am 10:53 Sunny 84 28.9 55 12.8 37 37 SE 8 13 29.78 1008 10 16 0.00 0.00
11:53 am 11:53 Sunny 87 30.6 55 12.8 34 34 ESE 13 20 29.76 1008 10 16 0.00 0.00
12:53 pm 12:53 Sunny 90 32.2 46 7.8 22 22 SSE 17 28 29.75 1007 10 16 0.00 0.00
1:53 pm 13:53 Sunny 90 32.2 46 7.8 22 22 SSE 16 26 29.74 1007 10 16 0.00 0.00
2:53 pm 14:53 Sunny 91 32.8 46 7.8 21 21 SSE 14 22 29.72 1007 10 16 0.00 0.00
3:53 pm 15:53 Sunny 92 33.3 49 9.4 23 23 SSE 17 28 29.71 1006 10 16 0.00 0.00
4:53 pm 16:53 Sunny 91 32.8 49 9.4 24 24 SSE 17 28 29.69 1006 10 16 0.00 0.00
5:53 pm 17:53 Sunny 90 32.2 49 9.4 24 24 SSE 15 24 29.67 1005 10 16 0.00 0.00
6:53 pm 18:53 Sunny 88 31.1 53 11.7 30 30 SSE 10 17 29.65 1004 10 16 0.00 0.00
7:53 pm 19:53 Sunny 83 28.3 54 12.2 37 37 SE 8 13 29.66 1005 10 16 0.00 0.00
8:53 pm 20:53 Clear 75 23.9 56 13.3 52 52 ESE 8 13 29.67 1005 10 16 0.00 0.00
9:53 pm 21:53 Clear 71 21.7 56 13.3 59 59 ESE 7 11 29.68 1005 10 16 0.00 0.00
10:53 pm 22:53 Clear 73 22.8 57 13.9 57 57 ESE 13 20 29.66 1004 10 16 0.00 0.00
11:53 pm 23:53 Clear 72 22.2 58 14.4 61 61 ESE 14 22 29.66 1004 10 16 0.00 0.00

Powered by AerisWeather